Clearfield, PA

2:19 AM EST on February 07, 2016 (GMT -0500)
Clearfield-Lawrence

Weather History for KFIG - June, 2013

Change the Weather History Date:

Sunday, June 16, 2013

  Actual Average (KDUJ) Record (KDUJ)
Temperature  
Mean Temperature 64 °F 65 °F  
Max Temperature 73 °F 75 °F 89 °F (1967)
Min Temperature 55 °F 54 °F 42 °F (1964)
Degree Days  
Heating Degree Days 1 3  
Month to date heating degree days 63  
Since 1 June heating degree days 63  
Since 1 July heating degree days 6865  
Growing Degree Days 14 (Base 50)    
Moisture  
Dew Point 60 °F    
Average Humidity 83    
Maximum Humidity 94    
Minimum Humidity 66    
Precipitation  
Precipitation 0.31 in 0.16 in 1.24 in (2011)
Month to date precipitation 2.56  
Sea Level Pressure  
Sea Level Pressure 29.93 in    
Wind  
Wind Speed 6 mph (SW)    
Max Wind Speed 16 mph    
Max Gust Speed 25 mph    
Visibility 8 miles    
Events Rain , Thunderstorm    
T = Trace of Precipitation, MM = Missing Value Source: NWS Daily Summary

Daily Weather History Graph

Daily Weather History Graph

Search for Another Location

Airport or City:

Trip Planner

Search our weather history database for the weather conditions in past years. The results will help you decide how hot, cold, wet, or windy it might be!

Date:

Astronomy

Jun. 16, 2013 Rise Set
Actual Time 5:40 AM EDT 8:48 PM EDT
Civil Twilight 5:07 AM EDT 9:21 PM EDT
Nautical Twilight 4:24 AM EDT 10:04 PM EDT
Astronomical Twilight 3:33 AM EDT 10:56 PM EDT
Moon 1:18 PM EDT (6/16) 12:48 AM EDT (6/16)
Length of Visible Light 16h 14m
Length of Day
15h 07m
Waxing Crescent, 49% of the Moon is Illuminated
Jun 16
Waxing Crescent
Jun 16
First Quarter
Jun 23
Full
Jun 30
Last Quarter
Jul 8
New

Hourly Weather History & Observations

Time (EDT) Temp. Dew Point Humidity Pressure Visibility Wind Dir Wind Speed Gust Speed Precip Events Conditions
12:54 AM 55.9 °F 48.9 °F 77% 30.04 in 10.0 mi Calm Calm - N/A   Clear
1:54 AM 55.9 °F 50.0 °F 80% 30.03 in 10.0 mi SE 3.5 mph - 0.00 in Rain Light Rain
2:54 AM 55.9 °F 51.1 °F 84% 30.01 in 10.0 mi Calm Calm - 0.00 in   Overcast
3:54 AM 57.0 °F 48.9 °F 74% 29.99 in 10.0 mi Calm Calm - N/A   Overcast
4:54 AM 57.0 °F 50.0 °F 77% 29.99 in 10.0 mi Calm Calm - N/A   Overcast
5:54 AM 57.0 °F 52.0 °F 83% 29.98 in 10.0 mi Calm Calm - N/A   Overcast
6:54 AM 57.0 °F 51.1 °F 81% 29.98 in 10.0 mi Calm Calm - N/A   Overcast
7:54 AM 57.0 °F 53.1 °F 87% 29.97 in 7.0 mi SSW 4.6 mph - 0.00 in Rain Light Rain
8:54 AM 59.0 °F 55.0 °F 87% 29.95 in 10.0 mi SSW 4.6 mph - 0.00 in   Overcast
9:54 AM 61.0 °F 57.0 °F 87% 29.90 in 10.0 mi South 5.8 mph - 0.00 in   Scattered Clouds
10:50 AM 62.6 °F 59.0 °F 88% 29.89 in 10.0 mi SSW 11.5 mph 18.4 mph 0.00 in Rain Light Rain
10:54 AM 63.0 °F 59.0 °F 87% 29.88 in 10.0 mi SSW 8.1 mph 18.4 mph 0.00 in   Overcast
11:05 AM 64.4 °F 60.8 °F 88% 29.89 in 9.0 mi SSW 9.2 mph - N/A   Overcast
11:54 AM 66.9 °F 62.1 °F 84% 29.87 in 9.0 mi SW 10.4 mph 20.7 mph N/A   Overcast
12:21 PM 69.8 °F 62.6 °F 78% 29.89 in 10.0 mi SW 16.1 mph 25.3 mph N/A   Overcast
12:54 PM 70.0 °F 62.1 °F 76% 29.88 in 10.0 mi WSW 15.0 mph 25.3 mph 0.00 in Rain Light Rain
1:54 PM 68.0 °F 62.1 °F 81% 29.88 in 10.0 mi West 15.0 mph 21.9 mph 0.01 in Rain Light Rain
2:54 PM 68.0 °F 61.0 °F 78% 29.88 in 10.0 mi WSW 11.5 mph 17.3 mph 0.00 in   Overcast
3:04 PM 69.8 °F 62.6 °F 78% 29.89 in 10.0 mi WSW 13.8 mph 23.0 mph 0.00 in Rain Light Rain
3:54 PM 73.0 °F 62.1 °F 68% 29.87 in 10.0 mi WSW 16.1 mph 23.0 mph 0.00 in   Mostly Cloudy
4:54 PM 73.9 °F 62.1 °F 66% 29.88 in 10.0 mi WSW 13.8 mph - N/A   Scattered Clouds
5:54 PM 73.9 °F 62.1 °F 66% 29.88 in 10.0 mi WSW 12.7 mph 23.0 mph N/A   Scattered Clouds
6:54 PM 73.0 °F 62.1 °F 68% 29.88 in 10.0 mi WSW 11.5 mph - N/A   Partly Cloudy
7:54 PM 71.1 °F 62.1 °F 73% 29.91 in 10.0 mi WSW 8.1 mph - N/A   Clear
8:54 PM 69.1 °F 62.1 °F 78% 29.91 in 10.0 mi SW 8.1 mph - N/A   Scattered Clouds
9:54 PM 68.0 °F 63.0 °F 84% 29.93 in 10.0 mi SW 11.5 mph - N/A   Mostly Cloudy
10:23 PM 68.0 °F 64.4 °F 88% 29.95 in 10.0 mi SW 9.2 mph - N/A   Mostly Cloudy
10:54 PM 66.9 °F 64.0 °F 90% 29.95 in 10.0 mi WSW 6.9 mph - 0.00 in Rain Light Rain
11:03 PM 66.2 °F 64.4 °F 94% 29.97 in 3.0 mi WSW 9.2 mph - 0.07 in Rain Heavy Rain
11:06 PM 66.2 °F 64.4 °F 94% 29.96 in 1.8 mi SW 8.1 mph - 0.13 in Rain Heavy Rain
11:12 PM 66.2 °F 64.4 °F 94% 29.96 in 1.5 mi SSW 8.1 mph - 0.17 in Rain , Thunderstorm Heavy Rain
11:17 PM 66.2 °F 64.4 °F 94% 29.96 in 3.0 mi SSW 4.6 mph - 0.17 in Rain , Thunderstorm Light Rain
11:29 PM 66.2 °F 64.4 °F 94% 29.96 in 4.0 mi SSW 6.9 mph - 0.18 in Rain , Thunderstorm Light Rain
11:33 PM 66.2 °F 64.4 °F 94% 29.96 in 5.0 mi SSW 8.1 mph - 0.18 in Rain , Thunderstorm Light Rain
11:47 PM 64.4 °F 62.6 °F 94% 29.96 in 2.5 mi SW 10.4 mph - 0.24 in Rain , Thunderstorm Heavy Rain
11:54 PM 64.9 °F 62.1 °F 90% 29.95 in 2.0 mi SW 10.4 mph 19.6 mph 0.30 in Rain , Thunderstorm Heavy Rain